TRANSPORTER-15 CH (66745 NORAD) Tracking and Keplerian Element Data

This shows tracking and keplerian element data for the satellite.

Feedback or suggestion? Click here.




ElementValue
Catalog66745
NameTRANSPORTER-15 CH
Epoch Orbit294
Epoch Day352.14493979
Epoch Year2025
RAAN63.8169
Inclination97.4425
Eccentricity8.88E-05
Argument of Perigee243.2573
Mean Anonmoly116.857
Mean Motion15.17410402
Decay Rate2.939E-05
L11 66745U 25276CH 25352.14493979 .00002939 00000+0 15035-3 0 9992
L22 66745 97.4425 63.8169 0000888 243.2573 116.8570 15.17410402 2942



Live tracking and technical data element details for TRANSPORTER-15 CH (NORAD 66745). TRANSPORTER-15 CH can be tracked NOW for your location showing map with azimuth and elevation plus other details from your city location.







IsCatalogInMostPopularTable: catalog: 66745, numindb: 21
Update: records affected: 1



GetName: 66745 TRANSPORTER-15 CH

Hit Count: updated at: Wed, 15 Apr 2026 01:31:00 GMT